[[{"header":{"parameterUnit":"m.s-1","parameterCategory":2,"la1":30.2991,"la2":30.254,"lo1":-89.0895,"lo2":-89.0444,"dy":0.0017,"dx":0.0017,"nx":28,"ny":28,"refTime":"2023-11-03T03:00:00:Z","depth":"0","parameterNumber":2,"parameterNumberName":"U-component_of_CURRENTS"},"data":[0,0,0,0,0,0,0,0,0,0,0,0,0,0,0,0,0,0,0,0,0,0,0,0,0,0,0,0,0,0,0,0,0,0,0,0,0,0,0,0,0,0,0,0,0,0,0,0,0,0,0,0,0,0,0,0,0,0,-0.1983,-0.1983,0,-0.1963,-0.1962,-0.1961,-0.1905,-0.1905,-0.1904,-0.1904,-0.1824,-0.1823,-0.1821,0,0,0,0,0,0,0,0,0,0,0,0,0,-0.1879,-0.1881,-0.1983,-0.1983,-0.1984,-0.1963,-0.1962,-0.1961,-0.1906,-0.1905,-0.1904,-0.1903,-0.1825,-0.1823,-0.1821,0,0,0,0,0,0,0,0,0,0,0,0,0,-0.1892,-0.1882,-0.1983,-0.1958,-0.1956,-0.1963,-0.1962,-0.1961,-0.1906,-0.1905,-0.1904,-0.1903,-0.1825,-0.1823,-0.1821,-0.1826,0,0,-0.1814,-0.1813,0,0,0,0,0,0,0,0,-0.1892,-0.1896,-0.1961,-0.196,-0.1958,-0.1941,-0.1897,-0.1915,-0.1906,-0.1918,-0.1904,-0.1902,-0.1862,-0.1857,-0.1847,-0.1822,-0.1819,-0.1814,-0.1812,-0.1811,-0.1811,0,0,0,0,0,0,0,-0.1891,-0.1896,-0.1969,-0.1962,-0.196,-0.1916,-0.1917,-0.1899,-0.189,-0.1917,-0.1915,-0.1922,-0.186,-0.185,-0.1845,-0.1818,-0.1814,-0.1812,-0.181,-0.1809,-0.1796,-0.1796,0,0,0,0,0,0,-0.1913,-0.1896,-0.197,-0.1969,-0.1929,-0.1919,-0.192,-0.1942,-0.1892,-0.1885,-0.1923,-0.192,-0.1854,-0.1848,-0.1842,-0.1858,-0.1811,-0.1809,-0.1808,-0.1795,-0.1796,-0.1797,0,0,0,0,0,0,-0.1911,-0.192,-0.197,-0.1935,-0.1939,-0.1924,-0.1948,-0.1943,-0.1934,-0.1898,-0.1889,-0.1922,-0.1853,-0.1845,-0.1833,-0.1854,-0.1808,-0.1806,-0.1793,-0.1795,-0.1796,-0.1881,0,0,0,0,0,0,-0.1908,-0.192,-0.1952,-0.1938,-0.1943,-0.199,-0.1949,-0.1943,-0.1944,-0.1939,-0.1894,-0.1885,-0.1852,-0.1837,-0.1831,-0.185,-0.1804,-0.1792,-0.1794,-0.1796,-0.1877,-0.1886,-0.1893,0,0,0,0,0,-0.1905,-0.1952,-0.1954,-0.1963,-0.1985,-0.1992,-0.199,-0.1969,-0.1945,-0.1954,-0.1918,-0.1887,-0.1844,-0.1836,-0.1829,-0.1847,-0.1791,-0.1793,-0.1796,-0.1874,-0.1884,-0.1892,0,0,0,0,0,0,-0.1929,-0.1952,-0.1952,-0.2007,-0.2008,-0.1985,-0.1995,-0.1978,-0.1957,-0.1946,-0.1899,-0.1889,-0.1886,-0.1857,-0.1849,-0.1849,-0.1813,-0.1814,-0.1875,-0.1884,-0.1892,-0.1911,-0.1802,0,0,0,0,0,-0.1953,-0.1984,-0.1996,-0.2035,-0.2039,-0.2016,-0.2019,-0.2005,-0.1984,-0.1972,-0.1941,-0.1908,-0.189,-0.188,-0.1857,-0.186,-0.1849,-0.1867,-0.1875,-0.1881,-0.1892,-0.1899,-0.1909,-0.1804,-0.1804,-0.1804,0,0,-0.1972,-0.1988,-0.2007,-0.2041,-0.2031,-0.2051,-0.2013,-0.202,-0.2035,-0.1968,-0.1969,-0.1934,-0.1897,-0.1897,-0.1893,-0.1876,-0.1907,-0.1884,-0.189,-0.1898,-0.1903,-0.1913,-0.1922,-0.1806,-0.1805,-0.1805,0,0,-0.2002,-0.2038,-0.2063,-0.2077,-0.2085,-0.208,-0.2087,-0.2072,-0.2065,-0.2068,-0.2021,-0.2006,-0.1974,-0.1957,-0.1943,-0.1983,-0.1947,-0.1968,-0.2023,-0.203,-0.2039,-0.2047,-0.2055,-0.2063,-0.1973,-0.1973,-0.1973,0,-0.2018,-0.2068,-0.207,-0.2097,-0.2115,-0.2097,-0.2123,-0.2125,-0.2108,-0.2104,-0.2081,-0.2041,-0.2009,-0.2014,-0.2023,-0.2002,-0.1995,-0.1991,-0.2042,-0.2049,-0.2055,-0.2062,-0.2069,-0.1977,-0.1977,-0.1976,-0.1976,0,-0.2057,-0.2109,-0.2123,-0.2155,-0.2172,-0.2197,-0.2204,-0.2211,-0.2197,-0.2188,-0.2186,-0.2148,-0.2119,-0.2112,-0.2078,-0.2104,-0.2081,-0.2051,-0.2021,-0.2071,-0.2074,-0.2081,-0.1983,-0.1982,-0.1981,-0.198,0,0,-0.2059,-0.2137,-0.2143,-0.2173,-0.2211,-0.2222,-0.2257,-0.2277,-0.229,-0.2281,-0.2296,-0.227,-0.2234,-0.2216,-0.2175,-0.2185,-0.2224,-0.2139,-0.2138,-0.2154,-0.224,-0.2338,-0.2353,-0.2198,-0.2199,-0.22,-0.2228,0,-0.2085,-0.2161,-0.2185,-0.2248,-0.2291,-0.2298,-0.233,-0.2343,-0.2345,-0.2358,-0.2336,-0.233,-0.228,-0.2262,-0.2267,-0.2224,-0.2242,-0.2219,-0.2184,-0.2183,-0.2269,-0.2365,-0.2223,-0.2246,-0.2233,-0.2234,-0.2235,0,-0.2112,-0.2167,-0.2246,-0.231,-0.2321,-0.235,-0.2387,-0.2408,-0.2428,-0.2428,-0.2425,-0.2398,-0.24,-0.2357,-0.234,-0.2322,-0.2294,-0.2274,-0.2273,-0.2341,-0.2294,-0.2191,-0.2257,-0.2105,-0.2244,-0.2243,-0.2243,0,-0.212,-0.2201,-0.2269,-0.2298,-0.237,-0.2386,-0.24,-0.2424,-0.2445,-0.2466,-0.2483,-0.2473,-0.2462,-0.2441,-0.2399,-0.2361,-0.24,-0.2334,-0.2405,-0.2409,-0.2273,-0.2266,-0.2194,-0.235,-0.235,-0.235,-0.235,0,-0.2151,-0.2201,-0.2279,-0.2326,-0.238,-0.24,-0.2442,-0.2456,-0.2486,-0.2515,-0.2507,-0.2534,-0.2481,-0.249,-0.2445,-0.2471,-0.2434,-0.245,-0.2442,-0.2302,-0.2298,-0.2147,-0.2139,-0.2351,-0.235,-0.235,-0.235,0,-0.2154,-0.2216,-0.2302,-0.2383,-0.2399,-0.2429,-0.2469,-0.2495,-0.2518,-0.2561,-0.257,-0.258,-0.2601,-0.2587,-0.2558,-0.2539,-0.2493,-0.2561,-0.2418,-0.2397,-0.2347,-0.2351,-0.2401,-0.2339,-0.2644,-0.2647,-0.2649,0,-0.2158,-0.2215,-0.2336,-0.2383,-0.242,-0.2463,-0.2492,-0.2514,-0.2537,-0.2589,-0.2608,-0.2655,-0.2702,-0.2743,-0.2718,-0.2725,-0.259,-0.2586,-0.2513,-0.2373,-0.2367,-0.2362,-0.2301,-0.2339,-0.2339,-0.2338,-0.2338,0,-0.2172,-0.2231,-0.2306,-0.2407,-0.2457,-0.2504,-0.2534,-0.2561,-0.2583,-0.2634,-0.2687,-0.2739,-0.2802,-0.2788,-0.283,-0.2758,-0.2491,-0.259,-0.2439,-0.2164,-0.2153,-0.2074,-0.2294,-0.2336,-0.2336,-0.2336,-0.2336,-0.2337,-0.2172,-0.2223,-0.2331,-0.2408,-0.2477,-0.2517,-0.2507,-0.2557,-0.2599,-0.2624,-0.2721,-0.2746,-0.2725,-0.2791,-0.2765,-0.2494,-0.259,-0.2311,-0.2337,-0.235,-0.2281,-0.2558,-0.2613,-0.2615,-0.2616,-0.2618,-0.2619,0,-0.2147,-0.2217,-0.2308,-0.2402,-0.2454,-0.2487,-0.2509,-0.247,-0.2491,-0.2564,-0.2635,-0.2598,-0.2566,-0.246,-0.2283,-0.2197,-0.208,-0.2061,-0.1893,-0.185,-0.2032,-0.2003,-0.1936,-0.1936,-0.1936,-0.1936,-0.1936,-0.1937,-0.2141,-0.2207,-0.2253,-0.2334,-0.2393,-0.2365,-0.2346,-0.2305,-0.2297,-0.2278,-0.2252,-0.2341,-0.2167,-0.2143,-0.1883,-0.1778,-0.1652,-0.1696,-0.1719,-0.1683,-0.1701,-0.1718,-0.1679,-0.1545,-0.1545,-0.1373,-0.1371,-0.137]},{"header":{"parameterUnit":"m.s-1","parameterCategory":2,"la1":30.2991,"la2":30.254,"lo1":-89.0895,"lo2":-89.0444,"dy":0.0017,"dx":0.0017,"nx":28,"ny":28,"refTime":"2023-11-03T03:00:00:Z","depth":"0","parameterNumber":3,"parameterNumberName":"V-component_of_CURRENTS"},"data":[0,0,0,0,0,0,0,0,0,0,0,0,0,0,0,0,0,0,0,0,0,0,0,0,0,0,0,0,0,0,0,0,0,0,0,0,0,0,0,0,0,0,0,0,0,0,0,0,0,0,0,0,0,0,0,0,0,0,-0.1141,-0.1142,0,-0.1131,-0.113,-0.113,-0.1099,-0.1099,-0.1099,-0.1099,-0.0992,-0.099,-0.0987,0,0,0,0,0,0,0,0,0,0,0,0,0,-0.1025,-0.1027,-0.1141,-0.1142,-0.1142,-0.1131,-0.113,-0.1129,-0.1099,-0.1099,-0.1099,-0.1099,-0.0993,-0.099,-0.0986,0,0,0,0,0,0,0,0,0,0,0,0,0,-0.1045,-0.1028,-0.1141,-0.1131,-0.1131,-0.1131,-0.113,-0.1129,-0.1099,-0.1099,-0.1099,-0.1099,-0.0994,-0.099,-0.0986,-0.096,0,0,-0.0973,-0.0971,0,0,0,0,0,0,0,0,-0.1044,-0.1048,-0.1132,-0.1132,-0.1132,-0.1123,-0.1051,-0.107,-0.1099,-0.1104,-0.1099,-0.1099,-0.1032,-0.1024,-0.1014,-0.0955,-0.095,-0.0973,-0.097,-0.0968,-0.0967,0,0,0,0,0,0,0,-0.1043,-0.1048,-0.113,-0.1133,-0.1133,-0.109,-0.1093,-0.1053,-0.106,-0.1103,-0.1103,-0.1113,-0.103,-0.1018,-0.1011,-0.0949,-0.0973,-0.0969,-0.0966,-0.0965,-0.0845,-0.0844,0,0,0,0,0,0,-0.1065,-0.1048,-0.113,-0.113,-0.1095,-0.1093,-0.1096,-0.112,-0.1063,-0.1057,-0.1113,-0.1112,-0.1025,-0.1016,-0.1007,-0.0969,-0.0968,-0.0964,-0.0962,-0.0845,-0.0845,-0.0844,0,0,0,0,0,0,-0.1062,-0.1073,-0.1131,-0.1093,-0.1099,-0.1097,-0.1122,-0.112,-0.1112,-0.1073,-0.1064,-0.111,-0.1025,-0.1013,-0.0972,-0.0965,-0.0962,-0.0958,-0.0846,-0.0845,-0.0844,-0.0895,0,0,0,0,0,0,-0.1059,-0.1072,-0.109,-0.1095,-0.1102,-0.1136,-0.1123,-0.112,-0.1122,-0.112,-0.1067,-0.1057,-0.1024,-0.0979,-0.0968,-0.0959,-0.0955,-0.0847,-0.0846,-0.0845,-0.0894,-0.0896,-0.0898,0,0,0,0,0,-0.1055,-0.1081,-0.1092,-0.1102,-0.113,-0.1137,-0.1135,-0.1127,-0.1122,-0.1119,-0.1082,-0.1059,-0.0964,-0.0975,-0.0963,-0.0952,-0.0848,-0.0846,-0.0845,-0.0894,-0.0896,-0.0898,0,0,0,0,0,0,-0.1034,-0.1081,-0.1093,-0.1131,-0.1138,-0.1134,-0.1135,-0.1132,-0.1102,-0.1095,-0.1053,-0.104,-0.1002,-0.0968,-0.0982,-0.0912,-0.09,-0.0896,-0.0942,-0.0943,-0.0945,-0.095,-0.0952,0,0,0,0,0,-0.1043,-0.1074,-0.1104,-0.1128,-0.114,-0.1138,-0.1139,-0.1135,-0.1117,-0.1105,-0.1068,-0.1024,-0.0985,-0.0959,-0.092,-0.0881,-0.0857,-0.0864,-0.0865,-0.0867,-0.0861,-0.0828,-0.0827,-0.0839,-0.0839,-0.0839,0,0,-0.104,-0.107,-0.1086,-0.1125,-0.1129,-0.1138,-0.1136,-0.1142,-0.1136,-0.1095,-0.1064,-0.103,-0.0977,-0.0938,-0.0917,-0.0908,-0.0852,-0.0865,-0.0868,-0.086,-0.0826,-0.0825,-0.0824,-0.0838,-0.0839,-0.0839,0,0,-0.1039,-0.1078,-0.11,-0.1114,-0.1136,-0.1136,-0.1143,-0.1143,-0.1132,-0.1107,-0.1075,-0.1038,-0.0978,-0.0939,-0.0912,-0.0896,-0.0867,-0.0882,-0.0889,-0.0858,-0.0857,-0.0856,-0.0836,-0.0833,-0.0879,-0.0879,-0.0879,0,-0.1026,-0.1075,-0.1101,-0.1121,-0.1132,-0.1139,-0.115,-0.1141,-0.112,-0.1109,-0.1101,-0.1018,-0.0977,-0.0927,-0.0921,-0.09,-0.0883,-0.0891,-0.0862,-0.086,-0.0858,-0.0838,-0.0834,-0.0881,-0.0881,-0.088,-0.088,0,-0.1041,-0.108,-0.1091,-0.1125,-0.113,-0.1144,-0.1148,-0.1141,-0.1131,-0.1119,-0.1079,-0.1027,-0.0976,-0.0959,-0.0933,-0.0894,-0.0889,-0.0876,-0.0864,-0.086,-0.0839,-0.0834,-0.0884,-0.0883,-0.0883,-0.0882,0,0,-0.1014,-0.109,-0.1093,-0.1121,-0.114,-0.1149,-0.1139,-0.1139,-0.1136,-0.1105,-0.1093,-0.1023,-0.1001,-0.0968,-0.0932,-0.0902,-0.0877,-0.0885,-0.0882,-0.0878,-0.0819,-0.0749,-0.0736,-0.0866,-0.0865,-0.0864,-0.0815,0,-0.1018,-0.1078,-0.1095,-0.1126,-0.1164,-0.116,-0.1155,-0.1146,-0.1131,-0.1119,-0.1074,-0.1043,-0.1004,-0.0984,-0.0946,-0.0898,-0.0863,-0.0892,-0.0811,-0.0808,-0.0756,-0.0727,-0.0625,-0.0566,-0.081,-0.0809,-0.0808,0,-0.1026,-0.1077,-0.1129,-0.1169,-0.1178,-0.1179,-0.1181,-0.1173,-0.1153,-0.1141,-0.1101,-0.107,-0.1014,-0.0991,-0.0896,-0.092,-0.0866,-0.083,-0.0827,-0.0737,-0.0727,-0.0603,-0.0546,-0.0354,-0.08,-0.08,-0.0801,0,-0.1036,-0.1088,-0.114,-0.1157,-0.12,-0.12,-0.1199,-0.1182,-0.1189,-0.1155,-0.116,-0.1084,-0.1062,-0.0981,-0.0897,-0.0896,-0.0809,-0.0796,-0.0681,-0.0677,-0.0558,-0.0543,-0.031,-0.0723,-0.0723,-0.0723,-0.0723,0,-0.1052,-0.1085,-0.1155,-0.1194,-0.1233,-0.1228,-0.1247,-0.1233,-0.1225,-0.1248,-0.1174,-0.1181,-0.1059,-0.0999,-0.0912,-0.0779,-0.0813,-0.0669,-0.0649,-0.0572,-0.0561,-0.0362,-0.0321,-0.0721,-0.0722,-0.0722,-0.0722,0,-0.106,-0.1109,-0.1185,-0.1246,-0.1257,-0.1285,-0.1304,-0.1325,-0.1294,-0.1324,-0.1318,-0.1254,-0.116,-0.1036,-0.091,-0.0795,-0.0561,-0.0627,-0.0549,-0.0519,-0.0203,-0.0172,0.0032,0.0113,-0.0471,-0.0469,-0.0467,0,-0.1066,-0.1119,-0.1237,-0.1298,-0.1329,-0.1366,-0.1401,-0.1375,-0.14,-0.1384,-0.1413,-0.132,-0.1281,-0.105,-0.079,-0.0581,-0.049,-0.0378,-0.0333,-0.0148,-0.0099,-0.0083,-0.003,-0.0207,-0.0203,-0.02,-0.0197,0,-0.1092,-0.1153,-0.124,-0.138,-0.1443,-0.1502,-0.1539,-0.157,-0.1552,-0.157,-0.1592,-0.1552,-0.1257,-0.0947,-0.0612,-0.0485,-0.0212,-0.0305,-0.0121,0.0134,0.0175,0.0249,-0.0297,-0.0169,-0.0172,-0.0174,-0.0176,-0.0177,-0.1114,-0.1198,-0.1346,-0.1464,-0.1557,-0.1648,-0.1698,-0.1737,-0.1789,-0.1809,-0.1747,-0.1603,-0.1059,-0.0549,-0.0381,0.0135,0.0014,0.0268,0.0287,0.0285,0.0394,-0.0093,0.0063,0.0062,0.0061,0.006,0.0059,0,-0.1141,-0.1265,-0.1408,-0.1585,-0.1719,-0.1724,-0.1807,-0.185,-0.1937,-0.1856,-0.1855,-0.1221,-0.0712,-0.0173,0.0532,0.0741,0.0769,0.081,0.0883,0.0903,0.0494,0.0543,0.0822,0.0821,0.0821,0.0821,0.0821,0.082,-0.117,-0.1321,-0.1424,-0.1688,-0.1811,-0.1952,-0.2001,-0.2041,-0.1974,-0.1774,-0.1409,-0.1134,-0.031,0.0661,0.1253,0.1279,0.1411,0.1382,0.1409,0.1171,0.1123,0.1077,0.114,0.1538,0.1539,0.1855,0.1859,0.1861]}],[{"header":{"parameterUnit":"m.s-1","parameterCategory":2,"la1":30.2991,"la2":30.254,"lo1":-89.0895,"lo2":-89.0444,"dy":0.0017,"dx":0.0017,"nx":28,"ny":28,"refTime":"2023-11-03T03:00:00:Z","depth":"2","parameterNumber":2,"parameterNumberName":"U-component_of_CURRENTS"},"data":[0,0,0,0,0,0,0,0,0,0,0,0,0,0,0,0,0,0,0,0,0,0,0,0,0,0,0,0,0,0,0,0,0,0,0,0,0,0,0,0,0,0,0,0,0,0,0,0,0,0,0,0,0,0,0,0,0,0,-0.0658,-0.0659,0,-0.0749,-0.075,-0.0751,-0.0792,-0.0792,-0.0792,-0.0792,-0.0877,-0.0879,-0.0881,0,0,0,0,0,0,0,0,0,0,0,0,0,-0.0646,-0.0644,-0.0657,-0.0659,-0.066,-0.0749,-0.075,-0.0751,-0.0792,-0.0792,-0.0792,-0.0792,-0.0876,-0.0879,-0.0881,0,0,0,0,0,0,0,0,0,0,0,0,0,-0.0683,-0.0644,-0.0657,-0.0693,-0.0697,-0.0749,-0.075,-0.0752,-0.0791,-0.0792,-0.0792,-0.0792,-0.0875,-0.0879,-0.0882,-0.0899,0,0,-0.0892,-0.0893,0,0,0,0,0,0,0,0,-0.068,-0.0683,-0.0686,-0.069,-0.0695,-0.0761,-0.0778,-0.0802,-0.0791,-0.0753,-0.0792,-0.0792,-0.0839,-0.0845,-0.0859,-0.0903,-0.0907,-0.0892,-0.0894,-0.0895,-0.0896,0,0,0,0,0,0,0,-0.0677,-0.068,-0.0691,-0.0688,-0.0693,-0.0749,-0.0753,-0.0783,-0.0792,-0.0756,-0.076,-0.0774,-0.0841,-0.0856,-0.0861,-0.0908,-0.0892,-0.0895,-0.0897,-0.0898,-0.0995,-0.0995,0,0,0,0,0,0,-0.0664,-0.0676,-0.0688,-0.0694,-0.0691,-0.0748,-0.0753,-0.0738,-0.0792,-0.0801,-0.0774,-0.0776,-0.085,-0.0857,-0.0864,-0.0885,-0.0895,-0.0899,-0.09,-0.0994,-0.0995,-0.0996,0,0,0,0,0,0,-0.0663,-0.0663,-0.0685,-0.0692,-0.0699,-0.0748,-0.0731,-0.074,-0.0761,-0.0806,-0.0815,-0.0788,-0.085,-0.086,-0.0885,-0.0889,-0.09,-0.0903,-0.0994,-0.0995,-0.0995,-0.0928,0,0,0,0,0,0,-0.0661,-0.0661,-0.064,-0.0689,-0.0698,-0.0718,-0.0732,-0.0742,-0.077,-0.0774,-0.0821,-0.0828,-0.0851,-0.0879,-0.0888,-0.0893,-0.0906,-0.0993,-0.0994,-0.0995,-0.093,-0.0927,-0.0924,0,0,0,0,0,-0.066,-0.0654,-0.0637,-0.0639,-0.0667,-0.0718,-0.0727,-0.0763,-0.0771,-0.0782,-0.0803,-0.0827,-0.0894,-0.0882,-0.0892,-0.0898,-0.0992,-0.0994,-0.0995,-0.0931,-0.0927,-0.0924,0,0,0,0,0,0,-0.0638,-0.0659,-0.0642,-0.0638,-0.0667,-0.0726,-0.0754,-0.0764,-0.0791,-0.0797,-0.0826,-0.0835,-0.0851,-0.0893,-0.0879,-0.0933,-0.0951,-0.0954,-0.0899,-0.0896,-0.0893,-0.0962,-0.0908,0,0,0,0,0,-0.0618,-0.0619,-0.0643,-0.064,-0.0661,-0.07,-0.0723,-0.0742,-0.0778,-0.0791,-0.0819,-0.0853,-0.0866,-0.0893,-0.0912,-0.0949,-0.102,-0.0966,-0.0963,-0.096,-0.1025,-0.1085,-0.1094,-0.1,-0.1,-0.1,0,0,-0.0612,-0.0622,-0.0622,-0.0636,-0.0671,-0.0703,-0.0716,-0.076,-0.0775,-0.0796,-0.0829,-0.0833,-0.0867,-0.089,-0.0906,-0.0929,-0.1023,-0.0962,-0.0959,-0.1028,-0.1088,-0.1097,-0.1105,-0.1001,-0.1001,-0.1001,0,0,-0.0646,-0.0611,-0.0643,-0.066,-0.0702,-0.0714,-0.0723,-0.0773,-0.0784,-0.0805,-0.0812,-0.083,-0.0868,-0.0895,-0.091,-0.0917,-0.0986,-0.0917,-0.0982,-0.1035,-0.1044,-0.1052,-0.1145,-0.1162,-0.0938,-0.0938,-0.0937,0,-0.0676,-0.0664,-0.0662,-0.0701,-0.0715,-0.0718,-0.0754,-0.0765,-0.0806,-0.0825,-0.0813,-0.0874,-0.0878,-0.0926,-0.0925,-0.0912,-0.0975,-0.0976,-0.1031,-0.1042,-0.1052,-0.1145,-0.1165,-0.0934,-0.0935,-0.0935,-0.0935,0,-0.0714,-0.0717,-0.0749,-0.0773,-0.0776,-0.0815,-0.0815,-0.0825,-0.0823,-0.084,-0.0877,-0.0887,-0.0941,-0.0923,-0.0928,-0.1001,-0.1032,-0.0994,-0.1035,-0.1057,-0.1153,-0.1176,-0.093,-0.0931,-0.0932,-0.0933,0,0,-0.0797,-0.0793,-0.0806,-0.0816,-0.0814,-0.0837,-0.0838,-0.0862,-0.0893,-0.0905,-0.0966,-0.0968,-0.0991,-0.1016,-0.1016,-0.108,-0.1167,-0.1087,-0.1091,-0.1176,-0.1334,-0.1397,-0.1427,-0.1131,-0.1135,-0.1138,-0.1369,0,-0.0859,-0.0926,-0.0886,-0.0925,-0.0953,-0.0921,-0.0929,-0.0931,-0.0932,-0.0984,-0.1003,-0.105,-0.1017,-0.1048,-0.1097,-0.1143,-0.1227,-0.1112,-0.1309,-0.1318,-0.1366,-0.1455,-0.1135,-0.1319,-0.1391,-0.1395,-0.1397,0,-0.0897,-0.0939,-0.0994,-0.0996,-0.101,-0.1037,-0.1042,-0.1049,-0.1084,-0.1093,-0.1139,-0.1144,-0.1232,-0.1191,-0.1336,-0.1266,-0.1326,-0.1368,-0.1376,-0.1495,-0.1424,-0.1314,-0.1357,-0.1435,-0.1432,-0.1429,-0.1427,0,-0.0931,-0.0994,-0.1035,-0.1041,-0.1058,-0.1094,-0.1111,-0.1118,-0.1122,-0.1195,-0.1226,-0.1291,-0.1368,-0.1425,-0.1496,-0.1424,-0.1684,-0.1568,-0.1701,-0.1706,-0.1513,-0.1497,-0.1715,-0.1715,-0.1715,-0.1714,-0.1713,0,-0.0975,-0.1013,-0.1083,-0.1115,-0.1164,-0.117,-0.1211,-0.1232,-0.1278,-0.1327,-0.1319,-0.1404,-0.1436,-0.1549,-0.1577,-0.175,-0.1746,-0.1785,-0.1789,-0.1481,-0.146,-0.1618,-0.1604,-0.1723,-0.1721,-0.1719,-0.1718,0,-0.0988,-0.1022,-0.1075,-0.1156,-0.1175,-0.1224,-0.1253,-0.1278,-0.1345,-0.142,-0.1453,-0.1536,-0.1714,-0.1764,-0.1912,-0.1896,-0.2011,-0.2075,-0.1748,-0.1713,-0.1973,-0.1953,-0.2231,-0.2236,-0.224,-0.2243,-0.2246,0,-0.0995,-0.1034,-0.111,-0.1124,-0.1176,-0.1233,-0.1244,-0.1299,-0.1334,-0.1514,-0.1573,-0.1775,-0.1923,-0.217,-0.2099,-0.219,-0.2244,-0.2031,-0.1834,-0.2061,-0.2036,-0.2009,-0.1984,-0.1533,-0.153,-0.1527,-0.1525,0,-0.1028,-0.1063,-0.1126,-0.1157,-0.119,-0.1177,-0.1257,-0.1306,-0.1409,-0.153,-0.1784,-0.1947,-0.2111,-0.2067,-0.2165,-0.2148,-0.1969,-0.1989,-0.2309,-0.1474,-0.1428,-0.1395,-0.1388,-0.1501,-0.1503,-0.1505,-0.1506,-0.1507,-0.1065,-0.1119,-0.1192,-0.1208,-0.1196,-0.1198,-0.1227,-0.1345,-0.1474,-0.1688,-0.1869,-0.2024,-0.1983,-0.1977,-0.1941,-0.1828,-0.1956,-0.1827,-0.1823,-0.1825,-0.1725,-0.169,-0.1796,-0.18,-0.1804,-0.1807,-0.1809,0,-0.1118,-0.1196,-0.1223,-0.1256,-0.1224,-0.1198,-0.1256,-0.1318,-0.1534,-0.165,-0.1876,-0.1729,-0.1708,-0.1695,-0.142,-0.1426,-0.1263,-0.1434,-0.115,-0.1175,-0.1197,-0.1054,-0.0953,-0.0952,-0.095,-0.0949,0,0,-0.1169,-0.1231,-0.1254,-0.1267,-0.1271,-0.1228,-0.1257,-0.1385,-0.1447,-0.1575,-0.1566,-0.1689,-0.1643,-0.1298,-0.1205,-0.105,-0.1114,-0.1003,-0.1668,-0.1356,-0.1377,-0.1387,-0.1194,0,0,0,0,0]},{"header":{"parameterUnit":"m.s-1","parameterCategory":2,"la1":30.2991,"la2":30.254,"lo1":-89.0895,"lo2":-89.0444,"dy":0.0017,"dx":0.0017,"nx":28,"ny":28,"refTime":"2023-11-03T03:00:00:Z","depth":"2","parameterNumber":3,"parameterNumberName":"V-component_of_CURRENTS"},"data":[0,0,0,0,0,0,0,0,0,0,0,0,0,0,0,0,0,0,0,0,0,0,0,0,0,0,0,0,0,0,0,0,0,0,0,0,0,0,0,0,0,0,0,0,0,0,0,0,0,0,0,0,0,0,0,0,0,0,0.029,0.029,0,0.0369,0.037,0.0371,0.039,0.0389,0.0388,0.0387,0.0317,0.0316,0.0315,0,0,0,0,0,0,0,0,0,0,0,0,0,0.0212,0.0213,0.029,0.029,0.0291,0.0369,0.037,0.0372,0.039,0.0389,0.0388,0.0387,0.0317,0.0316,0.0314,0,0,0,0,0,0,0,0,0,0,0,0,0,0.0267,0.0213,0.0289,0.0306,0.0308,0.0368,0.037,0.0372,0.039,0.0389,0.0387,0.0386,0.0317,0.0316,0.0314,0.0332,0,0,0.031,0.0309,0,0,0,0,0,0,0,0,0.0264,0.0271,0.0303,0.0305,0.0308,0.0365,0.0317,0.035,0.039,0.0363,0.0387,0.0385,0.0317,0.0316,0.0341,0.0329,0.0326,0.0309,0.0309,0.0308,0.0307,0,0,0,0,0,0,0,0.026,0.0268,0.0325,0.0304,0.0307,0.033,0.0336,0.0325,0.0347,0.0365,0.0366,0.0369,0.0318,0.0343,0.0339,0.0325,0.031,0.0308,0.0307,0.0307,0.0202,0.02,0,0,0,0,0,0,0.0241,0.0264,0.0322,0.0327,0.0278,0.0332,0.0339,0.0351,0.0351,0.0349,0.037,0.0369,0.0346,0.0341,0.0336,0.0285,0.0308,0.0306,0.0306,0.0204,0.0201,0.0199,0,0,0,0,0,0,0.024,0.0246,0.0319,0.0293,0.0304,0.0333,0.0347,0.0353,0.0338,0.0355,0.0351,0.0344,0.0345,0.0339,0.0314,0.0284,0.0306,0.0304,0.0206,0.0203,0.02,0.0227,0,0,0,0,0,0,0.0237,0.0245,0.0237,0.0292,0.0304,0.0325,0.0349,0.0355,0.0343,0.0342,0.0332,0.0327,0.0343,0.0316,0.0312,0.0282,0.0303,0.0208,0.0205,0.0201,0.0228,0.0225,0.0222,0,0,0,0,0,0.0234,0.0217,0.0237,0.0243,0.0296,0.0324,0.0332,0.0352,0.0342,0.0333,0.0338,0.0325,0.0289,0.0315,0.0311,0.0279,0.021,0.0206,0.0202,0.0229,0.0226,0.0222,0,0,0,0,0,0,0.0197,0.0219,0.0241,0.0238,0.0269,0.0324,0.03,0.0326,0.0328,0.0301,0.0324,0.0321,0.0297,0.0269,0.0297,0.0232,0.0237,0.0232,0.0259,0.0255,0.0253,0.0213,0.0302,0,0,0,0,0,0.0183,0.0162,0.0213,0.0209,0.0205,0.0248,0.0254,0.0271,0.0286,0.0284,0.0289,0.0273,0.0283,0.0253,0.0259,0.0217,0.0204,0.0181,0.0178,0.0177,0.0137,0.0163,0.0161,0.0186,0.0186,0.0186,0,0,0.0174,0.0177,0.0172,0.0196,0.0206,0.0212,0.0246,0.023,0.0246,0.0272,0.0259,0.0276,0.0277,0.0262,0.0239,0.0224,0.0154,0.0171,0.017,0.0131,0.0159,0.0157,0.0155,0.0183,0.0183,0.0184,0,0,0.012,0.0132,0.0087,0.0099,0.0098,0.0145,0.0129,0.0163,0.0174,0.0184,0.0215,0.0211,0.0198,0.0214,0.0218,0.0184,0.0164,0.0157,0.0087,0.0115,0.0114,0.0113,0.0072,0.0068,0.0127,0.0127,0.0127,0,0.0069,0.0065,0.0084,0.0045,0.0052,0.0105,0.0086,0.0121,0.0153,0.0161,0.016,0.0179,0.0183,0.0188,0.0172,0.0181,0.0163,0.0117,0.0116,0.0115,0.0114,0.0072,0.0067,0.0128,0.0128,0.0128,0.0128,0,0.0024,-0.0009,-0.0045,-0.006,-0.0034,-0.0059,0.0006,0.002,0.0044,0.0087,0.0091,0.0122,0.0122,0.0124,0.0134,0.0113,0.0092,0.0145,0.0139,0.0114,0.007,0.0064,0.0129,0.0129,0.0129,0.0129,0,0,-0.0045,-0.0088,-0.01,-0.0131,-0.0101,-0.0089,-0.0059,-0.001,-0.0003,0.0024,0.0032,0.0051,0.0055,0.0053,0.0071,0.0063,0.0046,0.0066,0.0067,0.0045,0.0045,0.0193,0.0201,0.0109,0.0108,0.0108,0.0012,0,-0.0113,-0.021,-0.0175,-0.0222,-0.026,-0.019,-0.0152,-0.0096,-0.0044,-0.002,0.001,0.0017,0.0036,0.0019,0.0027,0.006,0.0031,0.0062,0.005,0.0047,0.0204,0.0201,0.0197,0.0127,0.0006,0.0005,0.0004,0,-0.0147,-0.0217,-0.0296,-0.0319,-0.0326,-0.0323,-0.0256,-0.0223,-0.0148,-0.0123,-0.0102,-0.0058,-0.0068,-0.0041,-0.0032,-0.0016,-0.0017,-0.0002,-0.0002,0.0118,0.0188,0.0132,0.0121,-0.0006,-0.0005,-0.0004,-0.0003,0,-0.0184,-0.0279,-0.0349,-0.0363,-0.0374,-0.0385,-0.0365,-0.0278,-0.0252,-0.0212,-0.0201,-0.0159,-0.0171,-0.0132,-0.0098,-0.0073,-0.009,-0.0026,0.0091,0.0098,0.0079,0.0089,-0.0045,-0.0045,-0.0044,-0.0044,-0.0044,0,-0.0247,-0.0306,-0.0399,-0.0449,-0.0497,-0.0472,-0.0478,-0.0441,-0.0396,-0.0386,-0.0294,-0.029,-0.0197,-0.0166,-0.0129,-0.0039,-0.0108,0.006,0.0099,0.0086,0.0097,-0.0025,-0.0022,-0.0048,-0.0047,-0.0046,-0.0046,0,-0.0278,-0.0335,-0.0435,-0.0516,-0.0529,-0.057,-0.0567,-0.056,-0.0525,-0.0512,-0.0515,-0.0418,-0.037,-0.027,-0.022,-0.0078,-0.0006,0.0024,-0.0024,0.0017,0.0154,0.0159,0.0167,0.0172,0.0176,0.018,0.0183,0,-0.0298,-0.0375,-0.0499,-0.0543,-0.06,-0.0647,-0.065,-0.0629,-0.0625,-0.0592,-0.0602,-0.0545,-0.0479,-0.0311,-0.0079,0.006,-0.0007,0.0159,0.0257,0.0146,0.0182,0.0181,0.0181,0.0189,0.0192,0.0194,0.0196,0,-0.0368,-0.0431,-0.0533,-0.0631,-0.0683,-0.0701,-0.0742,-0.0767,-0.0741,-0.0742,-0.076,-0.0714,-0.0475,-0.0244,0.0032,0.0117,0.0172,0.022,0.0091,0.0196,0.0178,0.0211,0.0206,0.0216,0.0214,0.0212,0.0211,0.021,-0.0428,-0.0522,-0.0657,-0.0739,-0.0774,-0.0798,-0.0843,-0.0888,-0.0925,-0.0947,-0.0865,-0.0752,-0.0451,-0.0005,0.0158,0.0349,0.036,0.041,0.0396,0.0382,0.0462,0.046,0.0557,0.0557,0.0557,0.0557,0.0557,0,-0.0488,-0.0625,-0.0734,-0.0845,-0.0889,-0.0867,-0.0917,-0.099,-0.1105,-0.1,-0.0986,-0.0623,-0.0293,-0.0041,0.0335,0.0582,0.0517,0.056,0.0422,0.0405,0.0389,0.0463,0.056,0.056,0.056,0.056,0,0,-0.0547,-0.0687,-0.0771,-0.0923,-0.0988,-0.1039,-0.1085,-0.1205,-0.1177,-0.1142,-0.096,-0.0662,-0.0263,0.0004,0.0256,0.04,0.0323,0.0399,0.0384,0.0174,0.0154,0.0308,0.0407,0,0,0,0,0]}],[{"header":{"parameterUnit":"m.s-1","parameterCategory":2,"la1":30.2991,"la2":30.254,"lo1":-89.0895,"lo2":-89.0444,"dy":0.0017,"dx":0.0017,"nx":28,"ny":28,"refTime":"2023-11-03T03:00:00:Z","depth":"4","parameterNumber":2,"parameterNumberName":"U-component_of_CURRENTS"},"data":[0,0,0,0,0,0,0,0,0,0,0,0,0,0,0,0,0,0,0,0,0,0,0,0,0,0,0,0,0,0,0,0,0,0,0,0,0,0,0,0,0,0,0,0,0,0,0,0,0,0,0,0,0,0,0,0,0,0,-0.0796,-0.0796,0,-0.0828,-0.0829,-0.0829,-0.0853,-0.0854,-0.0854,-0.0854,-0.0881,-0.0881,-0.0881,0,0,0,0,0,0,0,0,0,0,0,0,0,-0.072,-0.0721,-0.0795,-0.0796,-0.0797,-0.0828,-0.0829,-0.0829,-0.0853,-0.0854,-0.0854,-0.0855,-0.0881,-0.0881,-0.0881,0,0,0,0,0,0,0,0,0,0,0,0,0,-0.0751,-0.0722,-0.0795,-0.0814,-0.0816,-0.0828,-0.0829,-0.0829,-0.0853,-0.0854,-0.0854,-0.0855,-0.0881,-0.0881,-0.0882,-0.0873,0,0,-0.0883,-0.0883,0,0,0,0,0,0,0,0,-0.0749,-0.0754,-0.0811,-0.0813,-0.0815,-0.0839,-0.0812,-0.0844,-0.0853,-0.0837,-0.0854,-0.0855,-0.0867,-0.0869,-0.0871,-0.0874,-0.0876,-0.0883,-0.0883,-0.0884,-0.0884,0,0,0,0,0,0,0,-0.0747,-0.0752,-0.0807,-0.0811,-0.0814,-0.0809,-0.0814,-0.0818,-0.0847,-0.0839,-0.0841,-0.0847,-0.0868,-0.087,-0.0872,-0.0876,-0.0883,-0.0884,-0.0884,-0.0884,-0.0921,-0.0922,0,0,0,0,0,0,-0.0748,-0.075,-0.0806,-0.0808,-0.0785,-0.081,-0.0816,-0.0829,-0.0847,-0.0851,-0.0847,-0.0848,-0.0869,-0.0871,-0.0873,-0.0924,-0.0884,-0.0884,-0.0884,-0.092,-0.0921,-0.0922,0,0,0,0,0,0,-0.0746,-0.0753,-0.0804,-0.0781,-0.0787,-0.0811,-0.0826,-0.083,-0.0846,-0.0854,-0.0857,-0.0861,-0.087,-0.0872,-0.0887,-0.0923,-0.0884,-0.0885,-0.0919,-0.0921,-0.0921,-0.0987,0,0,0,0,0,0,-0.0744,-0.0752,-0.0761,-0.0781,-0.0789,-0.082,-0.0826,-0.083,-0.0849,-0.0852,-0.0867,-0.0869,-0.087,-0.0886,-0.0888,-0.0923,-0.0885,-0.0919,-0.092,-0.0921,-0.0984,-0.099,-0.0995,0,0,0,0,0,-0.0742,-0.075,-0.0761,-0.0768,-0.08,-0.0821,-0.0824,-0.0841,-0.0849,-0.0858,-0.0868,-0.0869,-0.0895,-0.0887,-0.0888,-0.0925,-0.0918,-0.092,-0.0921,-0.0981,-0.0989,-0.0995,0,0,0,0,0,0,-0.0718,-0.0754,-0.0767,-0.0786,-0.0807,-0.0826,-0.0833,-0.0847,-0.0862,-0.0867,-0.0873,-0.0876,-0.09,-0.0897,-0.0888,-0.0937,-0.0909,-0.0911,-0.0954,-0.0961,-0.0967,-0.0978,-0.0886,0,0,0,0,0,-0.0718,-0.0738,-0.0768,-0.0782,-0.0793,-0.0815,-0.0826,-0.0842,-0.0858,-0.0866,-0.0877,-0.089,-0.0905,-0.0921,-0.0922,-0.095,-0.094,-0.0974,-0.098,-0.0985,-0.0993,-0.0992,-0.0999,-0.0927,-0.0927,-0.0927,0,0,-0.0712,-0.0735,-0.0746,-0.0779,-0.0794,-0.0812,-0.0823,-0.0845,-0.0867,-0.0865,-0.0893,-0.0903,-0.0911,-0.0942,-0.0955,-0.095,-0.1002,-0.0987,-0.0991,-0.0997,-0.0994,-0.1002,-0.1008,-0.0928,-0.0928,-0.0927,0,0,-0.0706,-0.0732,-0.0744,-0.0765,-0.0796,-0.0813,-0.0824,-0.0853,-0.0875,-0.0898,-0.0909,-0.0943,-0.0954,-0.0984,-0.0997,-0.1033,-0.1022,-0.1036,-0.109,-0.1089,-0.1095,-0.11,-0.1107,-0.1112,-0.1052,-0.1052,-0.1052,0,-0.0693,-0.072,-0.0749,-0.0765,-0.0782,-0.0816,-0.0831,-0.0858,-0.089,-0.0916,-0.0911,-0.096,-0.0977,-0.1031,-0.1059,-0.105,-0.1044,-0.1067,-0.1098,-0.1102,-0.1107,-0.1112,-0.1117,-0.1055,-0.1055,-0.1054,-0.1054,0,-0.0693,-0.0719,-0.0727,-0.0763,-0.0785,-0.0804,-0.0847,-0.0879,-0.0907,-0.0937,-0.0989,-0.1012,-0.1049,-0.1068,-0.1083,-0.1138,-0.1122,-0.1095,-0.1083,-0.1118,-0.1121,-0.1125,-0.106,-0.1059,-0.1058,-0.1057,0,0,-0.0649,-0.0714,-0.0715,-0.0739,-0.0788,-0.0805,-0.0853,-0.0907,-0.0947,-0.0985,-0.1036,-0.1091,-0.1118,-0.1135,-0.1162,-0.1187,-0.1231,-0.1171,-0.117,-0.1183,-0.1235,-0.1151,-0.1147,-0.1207,-0.1208,-0.1209,-0.1229,0,-0.0637,-0.0663,-0.0704,-0.0738,-0.0758,-0.0815,-0.0861,-0.092,-0.0964,-0.1022,-0.1078,-0.1128,-0.1139,-0.1176,-0.1202,-0.1223,-0.1243,-0.1228,-0.1194,-0.1193,-0.1118,-0.1149,-0.1211,-0.1231,-0.1232,-0.1233,-0.1233,0,-0.0615,-0.0643,-0.0662,-0.0745,-0.076,-0.0793,-0.0872,-0.0923,-0.1021,-0.1055,-0.1118,-0.1158,-0.124,-0.1222,-0.1271,-0.126,-0.1259,-0.1262,-0.1261,-0.1162,-0.1116,-0.1185,-0.124,-0.1239,-0.1239,-0.1238,-0.1238,0,-0.0551,-0.0617,-0.0629,-0.0649,-0.0738,-0.0779,-0.0846,-0.0938,-0.0996,-0.109,-0.1135,-0.1203,-0.1249,-0.1262,-0.1296,-0.1285,-0.1322,-0.1294,-0.1211,-0.1205,-0.1247,-0.1241,-0.1303,-0.1303,-0.1303,-0.1303,-0.1303,0,-0.0514,-0.0535,-0.0609,-0.0614,-0.067,-0.0755,-0.0837,-0.0899,-0.1011,-0.1063,-0.116,-0.1198,-0.1258,-0.1295,-0.1305,-0.1277,-0.1322,-0.1227,-0.1204,-0.1274,-0.1271,-0.125,-0.1244,-0.1304,-0.1304,-0.1303,-0.1303,0,-0.0442,-0.0484,-0.0505,-0.0593,-0.0636,-0.0676,-0.0841,-0.0901,-0.1008,-0.1076,-0.1113,-0.1211,-0.1244,-0.1295,-0.1314,-0.1274,-0.1266,-0.1237,-0.1331,-0.1312,-0.1149,-0.1146,-0.1143,-0.114,-0.1138,-0.1136,-0.1134,0,-0.0417,-0.0407,-0.0462,-0.0492,-0.0539,-0.0644,-0.0724,-0.087,-0.0898,-0.1059,-0.1046,-0.1158,-0.1202,-0.1199,-0.123,-0.1236,-0.1214,-0.1202,-0.1163,-0.1154,-0.1133,-0.1133,-0.1133,-0.113,-0.113,-0.1129,-0.1128,0,-0.0357,-0.0349,-0.0358,-0.0413,-0.0482,-0.0571,-0.0667,-0.0678,-0.0815,-0.0936,-0.0994,-0.1069,-0.11,-0.1133,-0.1149,-0.1145,-0.121,-0.1176,-0.1181,-0.1144,-0.1139,-0.112,-0.1123,-0.112,-0.1121,-0.1122,-0.1123,0,-0.0301,-0.0274,-0.0276,-0.0334,-0.0408,-0.0448,-0.0532,-0.0599,-0.0677,-0.0815,-0.0827,-0.0974,-0.1073,-0.1083,-0.1095,-0.1094,-0.1065,-0.1025,-0.1037,-0.1047,-0.1003,-0.0982,-0.09,0,0,0,0,0,-0.0246,-0.0207,-0.0229,-0.026,-0.0333,-0.0392,-0.0463,-0.0536,-0.0636,-0.0652,-0.0747,-0.0792,-0.0881,-0.0948,-0.0922,-0.099,-0.1024,-0.095,-0.0972,-0.1074,-0.1084,-0.104,0,0,0,0,0,0,-0.0206,-0.0183,-0.0183,-0.0204,-0.0227,-0.0307,-0.0349,-0.0428,-0.0424,-0.0546,-0.0597,-0.0737,-0.0815,-0.09,-0.0914,-0.0925,-0.0916,-0.1036,-0.1033,-0.1069,-0.1077,-0.1085,-0.1044,0,0,0,0,0]},{"header":{"parameterUnit":"m.s-1","parameterCategory":2,"la1":30.2991,"la2":30.254,"lo1":-89.0895,"lo2":-89.0444,"dy":0.0017,"dx":0.0017,"nx":28,"ny":28,"refTime":"2023-11-03T03:00:00:Z","depth":"4","parameterNumber":3,"parameterNumberName":"V-component_of_CURRENTS"},"data":[0,0,0,0,0,0,0,0,0,0,0,0,0,0,0,0,0,0,0,0,0,0,0,0,0,0,0,0,0,0,0,0,0,0,0,0,0,0,0,0,0,0,0,0,0,0,0,0,0,0,0,0,0,0,0,0,0,0,0.0279,0.0279,0,0.0309,0.0309,0.031,0.0341,0.0341,0.0341,0.0342,0.0377,0.0377,0.0378,0,0,0,0,0,0,0,0,0,0,0,0,0,0.028,0.028,0.0279,0.0279,0.028,0.0309,0.0309,0.031,0.0341,0.0341,0.0342,0.0342,0.0377,0.0377,0.0378,0,0,0,0,0,0,0,0,0,0,0,0,0,0.0292,0.028,0.0279,0.0298,0.03,0.0309,0.0309,0.031,0.034,0.0341,0.0342,0.0342,0.0376,0.0377,0.0378,0.0371,0,0,0.038,0.0381,0,0,0,0,0,0,0,0,0.0291,0.0292,0.0295,0.0297,0.0299,0.0322,0.0323,0.033,0.034,0.0325,0.0342,0.0343,0.0358,0.0361,0.0365,0.0372,0.0374,0.0381,0.0381,0.0381,0.0382,0,0,0,0,0,0,0,0.029,0.0291,0.0291,0.0295,0.0298,0.0317,0.0319,0.0324,0.0338,0.0327,0.0329,0.0332,0.036,0.0364,0.0366,0.0374,0.0381,0.0381,0.0382,0.0382,0.0365,0.0365,0,0,0,0,0,0,0.0284,0.029,0.029,0.0292,0.0297,0.0316,0.0318,0.0314,0.0338,0.0342,0.0331,0.0333,0.0362,0.0365,0.0367,0.0362,0.0381,0.0382,0.0383,0.0366,0.0365,0.0364,0,0,0,0,0,0,0.0284,0.0283,0.0289,0.0292,0.0294,0.0315,0.031,0.0314,0.0324,0.0342,0.0346,0.0338,0.0363,0.0366,0.0363,0.0364,0.0383,0.0383,0.0367,0.0366,0.0365,0.0351,0,0,0,0,0,0,0.0283,0.0283,0.0284,0.0291,0.0294,0.0288,0.031,0.0314,0.0325,0.0328,0.0348,0.0352,0.0364,0.0362,0.0364,0.0365,0.0384,0.0369,0.0367,0.0365,0.0353,0.0349,0.0346,0,0,0,0,0,0.0283,0.028,0.0283,0.0284,0.0291,0.0288,0.029,0.0308,0.0325,0.0322,0.0332,0.0352,0.0352,0.0361,0.0364,0.0366,0.0369,0.0367,0.0365,0.0354,0.035,0.0347,0,0,0,0,0,0,0.0289,0.0283,0.0287,0.0284,0.0283,0.0293,0.0297,0.0308,0.0315,0.032,0.034,0.0343,0.0339,0.0348,0.0358,0.0353,0.0364,0.0363,0.0355,0.0351,0.0348,0.0353,0.0385,0,0,0,0,0,0.0287,0.0278,0.0277,0.0275,0.0273,0.0285,0.029,0.0297,0.0303,0.0308,0.0319,0.0328,0.0331,0.0338,0.0337,0.0338,0.0372,0.0339,0.0336,0.0333,0.0337,0.038,0.0382,0.0357,0.0357,0.0357,0,0,0.0291,0.0285,0.0283,0.0275,0.0278,0.0264,0.0289,0.029,0.0279,0.0309,0.0301,0.0315,0.0325,0.0322,0.0322,0.0333,0.0359,0.0331,0.0329,0.0334,0.0378,0.0381,0.0384,0.0356,0.0356,0.0356,0,0,0.0281,0.0285,0.0269,0.026,0.0256,0.0257,0.0256,0.0259,0.0263,0.0254,0.0273,0.0288,0.0286,0.0302,0.0308,0.0287,0.0336,0.0285,0.0285,0.0326,0.0329,0.0333,0.039,0.0399,0.0291,0.0291,0.0291,0,0.0291,0.0263,0.0266,0.0243,0.0233,0.025,0.0227,0.023,0.0232,0.023,0.0244,0.0258,0.0277,0.0284,0.0284,0.0283,0.0321,0.0302,0.0325,0.0329,0.0333,0.0391,0.04,0.029,0.029,0.029,0.029,0,0.0258,0.024,0.023,0.02,0.019,0.0176,0.0171,0.0169,0.0178,0.018,0.0186,0.0217,0.0231,0.0241,0.0263,0.0293,0.0316,0.0314,0.0342,0.0335,0.0396,0.0406,0.0289,0.0289,0.0289,0.029,0,0,0.0275,0.0217,0.0217,0.0187,0.0165,0.015,0.0132,0.0116,0.0104,0.0125,0.0126,0.0153,0.0187,0.0197,0.0233,0.0283,0.0356,0.0318,0.032,0.0387,0.0468,0.0412,0.0418,0.0364,0.0365,0.0367,0.0506,0,0.0252,0.0192,0.0172,0.0123,0.009,0.009,0.0065,0.0055,0.0057,0.0062,0.0113,0.0124,0.0163,0.0188,0.0241,0.0329,0.038,0.032,0.0453,0.0458,0.0418,0.0426,0.0371,0.0514,0.0516,0.0518,0.0519,0,0.0231,0.0186,0.0129,0.0065,0.0053,0.0036,0.0004,-0.0015,-0.0005,-0.0002,0.0031,0.0067,0.0154,0.0183,0.0335,0.0298,0.038,0.0449,0.0455,0.0414,0.0419,0.0517,0.0538,0.0537,0.0535,0.0534,0.0533,0,0.023,0.0162,0.0111,0.009,0.0025,0.0014,-0.0003,-0.0021,-0.0046,-0.0018,-0.0014,0.0061,0.0129,0.0234,0.0384,0.0367,0.0557,0.0544,0.0566,0.0564,0.0583,0.0578,0.0635,0.0635,0.0635,0.0635,0.0634,0,0.0209,0.0173,0.0112,0.0084,0.0037,0.0003,-0.0026,-0.0043,-0.0059,-0.0084,-0.0027,-0.0003,0.0148,0.0266,0.0386,0.052,0.056,0.0572,0.0591,0.0574,0.0566,0.0592,0.0585,0.064,0.0639,0.0638,0.0637,0,0.0216,0.0174,0.0111,0.0045,0.0036,0.0009,-0.003,-0.0061,-0.0073,-0.0089,-0.0075,-0.0014,0.0132,0.0278,0.0472,0.0519,0.0653,0.0685,0.0681,0.0698,0.0633,0.0624,0.0711,0.071,0.071,0.0709,0.0708,0,0.0209,0.0176,0.0102,0.0079,0.0058,0.0027,0.0003,-0.0045,-0.0098,-0.0097,-0.0115,0.0011,0.0074,0.0319,0.0463,0.0666,0.0672,0.0732,0.0652,0.0628,0.0639,0.0631,0.0623,0.0707,0.0707,0.0707,0.0706,0,0.0196,0.0177,0.0124,0.0079,0.0052,0.0004,-0.0044,-0.0097,-0.0158,-0.0153,-0.0141,-0.0036,0.0118,0.0293,0.0454,0.0594,0.0686,0.0724,0.0725,0.065,0.0624,0.0634,0.0627,0.0704,0.0704,0.0704,0.0704,0,0.0202,0.0173,0.0119,0.0081,0.0043,-0.0021,-0.0054,-0.0114,-0.0164,-0.0211,-0.018,-0.002,0.0079,0.0258,0.0415,0.0537,0.0536,0.0538,0.0549,0.0554,0.0445,0.0386,0.0414,0,0,0,0,0,0.021,0.0186,0.0134,0.0068,0.0025,0.0012,-0.0092,-0.0141,-0.0202,-0.0211,-0.022,-0.0084,0.011,0.0213,0.0324,0.0388,0.0561,0.0515,0.057,0.0688,0.0691,0.0582,0,0,0,0,0,0,0.0215,0.0177,0.0137,0.0077,0.005,-0.0011,-0.0072,-0.0129,-0.0168,-0.0194,-0.0081,-0.0052,0.0158,0.0095,0.0351,0.0385,0.0422,0.0615,0.0615,0.0686,0.0689,0.0692,0.058,0,0,0,0,0]}]]